KD7QQY Weather Reports


time (UTC)temp
C
wind
direction
speed
KPH
gust
KPH
rain 1hr
cm
rain 24hr
cm
rain mn
cm
humidity
%
barometer
mb
20260506180047 11 252 3.2 11.3 0.00 0.00 0.00 92 1018.6
20260506175523 11 274 0.0 4.8 0.00 0.00 0.00 93 1018.7
20260506175023 11 225 1.6 4.8 0.00 0.00 0.00 92 1018.7
20260506174541 11 0 0.0 4.8 0.00 0.00 0.00 92 1018.7
20260506174023 11 271 0.0 4.8 0.00 0.00 0.00 92 1018.7
20260506173523 11 0 0.0 4.8 0.00 0.00 0.00 93 1018.7
20260506173046 11 0 0.0 4.8 0.00 0.00 0.00 92 1018.8
20260506172523 11 232 0.0 4.8 0.00 0.00 0.00 92 1018.8
20260506172025 11 232 1.6 6.4 0.00 0.00 0.00 92 1018.8
20260506171553 11 243 0.0 6.4 0.00 0.00 0.00 92 1018.8
20260506171024 11 232 1.6 6.4 0.00 0.00 0.00 92 1018.6
20260506170526 11 236 0.0 4.8 0.00 0.00 0.00 91 1018.6
20260506170043 11 240 0.0 4.8 0.00 0.00 0.00 91 1018.6
20260506165524 11 243 0.0 9.7 0.00 0.00 0.00 91 1018.5
20260506165024 11 0 0.0 9.7 0.00 0.00 0.00 92 1018.5
20260506164536 11 237 3.2 9.7 0.00 0.00 0.00 92 1018.5
20260506164023 11 0 3.2 9.7 0.00 0.00 0.00 91 1018.3
20260506163523 10 261 1.6 9.7 0.00 0.00 0.00 91 1018.3
20260506163042 10 0 1.6 6.4 0.00 0.00 0.00 92 1018.3
20260506162525 10 0 1.6 6.4 0.00 0.00 0.00 92 1018.2
20260506162023 10 228 1.6 6.4 0.00 0.00 0.00 92 1018.3
20260506161544 10 246 0.0 8.0 0.00 0.00 0.00 92 1018.3
20260506161023 10 207 3.2 8.0 0.00 0.00 0.00 91 1018.4
20260506160523 10 203 3.2 9.7 0.00 0.00 0.00 91 1018.3
20260506160052 10 0 3.2 9.7 0.00 0.00 0.00 91 1018.3
20260506155524 10 203 1.6 9.7 0.00 0.00 0.00 91 1018.2
20260506155024 10 221 1.6 9.7 0.00 0.00 0.00 91 1018.3
20260506154538 10 200 3.2 8.0 0.00 0.00 0.00 90 1018.2
20260506154027 10 233 1.6 6.4 0.00 0.00 0.00 90 1018.2
20260506153524 10 215 1.6 6.4 0.00 0.00 0.00 90 1018.1
20260506153043 10 244 1.6 6.4 0.00 0.00 0.00 90 1018.3
20260506152523 10 206 1.6 6.4 0.00 0.00 0.00 90 1018.2
20260506152024 10 219 3.2 8.0 0.00 0.00 0.00 90 1018.1
20260506151540 10 221 1.6 8.0 0.00 0.00 0.00 89 1018.1
20260506151023 10 224 3.2 9.7 0.00 0.00 0.00 89 1018.1
20260506150523 10 244 3.2 9.7 0.00 0.00 0.00 89 1017.9
20260506150042 10 214 3.2 9.7 0.00 0.00 0.00 89 1017.9
20260506145523 10 212 0.0 8.0 0.00 0.00 0.00 89 1018.0
20260506145023 10 212 3.2 9.7 0.00 0.00 0.00 89 1017.9
20260506144557 10 234 3.2 9.7 0.00 0.00 0.00 89 1017.8
20260506144028 10 210 4.8 9.7 0.00 0.00 0.00 89 1017.8
20260506143525 10 237 3.2 8.0 0.00 0.00 0.00 89 1017.7
20260506143039 10 242 3.2 8.0 0.00 0.00 0.00 89 1017.6
20260506142525 10 225 3.2 8.0 0.00 0.00 0.00 89 1017.4
20260506142024 10 207 3.2 8.0 0.00 0.00 0.00 89 1017.5
20260506141543 10 208 3.2 6.4 0.00 0.00 0.00 89 1017.3
20260506141024 10 216 1.6 6.4 0.00 0.00 0.00 89 1017.4
20260506140524 10 275 1.6 6.4 0.00 0.00 0.00 89 1017.4
20260506140044 10 238 0.0 4.8 0.00 0.00 0.00 89 1017.4
20260506135526 10 0 0.0 3.2 0.00 0.00 0.00 89 1017.3
20260506135023 10 0 0.0 3.2 0.00 0.00 0.00 89 1017.1
20260506134542 10 290 0.0 4.8 0.00 0.00 0.00 89 1017.2
20260506134025 10 0 0.0 4.8 0.00 0.00 0.00 89 1017.2
20260506133523 10 5 0.0 4.8 0.00 0.00 0.00 89 1017.1
20260506133040 10 0 0.0 4.8 0.00 0.00 0.00 89 1017.1
20260506132525 10 0 0.0 4.8 0.00 0.00 0.00 89 1017.1
20260506132023 10 279 0.0 3.2 0.00 0.00 0.00 89 1017.0
20260506131548 10 274 0.0 3.2 0.00 0.00 0.00 89 1017.1
20260506131027 10 0 0.0 3.2 0.00 0.00 0.00 89 1017.0
20260506130523 10 274 0.0 3.2 0.00 0.00 0.00 89 1017.0
20260506130038 10 0 0.0 4.8 0.00 0.00 0.00 89 1016.8
20260506125522 10 0 1.6 4.8 0.00 0.00 0.00 89 1016.7
20260506125022 10 237 0.0 3.2 0.00 0.00 0.00 89 1016.6
20260506124536 10 237 0.0 4.8 0.00 0.00 0.00 89 1016.7
20260506124026 10 0 0.0 4.8 0.00 0.00 0.00 90 1016.7
20260506123523 10 0 1.6 4.8 0.00 0.00 0.00 90 1016.7
20260506123045 10 0 1.6 4.8 0.00 0.00 0.00 90 1016.9
20260506122523 10 294 1.6 6.4 0.00 0.00 0.00 90 1016.9
20260506122026 10 208 1.6 6.4 0.00 0.00 0.00 90 1016.8
20260506121542 10 217 1.6 6.4 0.00 0.00 0.00 90 1016.8
20260506121024 10 0 0.0 4.8 0.00 0.00 0.00 90 1016.6
20260506120527 10 0 0.0 4.8 0.00 0.00 0.00 90 1016.8
20260506120039 10 252 1.6 6.4 0.00 0.00 0.00 90 1016.7
20260506115523 10 0 0.0 9.7 0.00 0.00 0.00 90 1016.8
20260506115022 10 252 1.6 9.7 0.00 0.00 0.00 90 1016.8
20260506114552 10 288 3.2 11.3 0.00 0.00 0.00 90 1016.8
20260506114024 10 326 1.6 11.3 0.00 0.00 0.00 90 1016.6
20260506113524 10 309 3.2 11.3 0.00 0.00 0.00 90 1016.4
20260506113035 10 0 0.0 6.4 0.00 0.00 0.00 90 1016.5
20260506112523 10 250 1.6 6.4 0.00 0.00 0.00 90 1016.4
20260506112023 10 251 0.0 6.4 0.00 0.00 0.00 90 1016.4
20260506111542 10 251 1.6 6.4 0.00 0.00 0.00 90 1016.5
20260506111023 10 257 1.6 6.4 0.00 0.00 0.00 91 1016.5
20260506110526 10 257 0.0 6.4 0.00 0.00 0.00 91 1016.5
20260506110044 10 257 0.0 6.4 0.00 0.00 0.00 91 1016.5
20260506105527 10 0 1.6 6.4 0.00 0.00 0.00 91 1016.6
20260506105025 10 273 1.6 9.7 0.00 0.00 0.00 91 1016.5
20260506104544 10 304 1.6 12.9 0.00 0.00 0.00 91 1016.4
20260506104023 10 321 4.8 12.9 0.00 0.00 0.00 91 1016.6
20260506103523 10 307 3.2 12.9 0.00 0.00 0.00 91 1016.5
20260506103039 10 297 6.4 14.5 0.00 0.00 0.00 91 1016.4
20260506102523 10 309 6.4 14.5 0.00 0.00 0.00 91 1016.4
20260506102024 10 327 4.8 12.9 0.00 0.00 0.00 92 1016.3
20260506101537 10 321 4.8 11.3 0.00 0.00 0.00 92 1016.2
20260506101024 10 306 1.6 4.8 0.00 0.00 0.00 92 1016.2
20260506100520 10 307 0.0 3.2 0.00 0.00 0.00 92 1016.1
20260506100037 10 0 0.0 4.8 0.00 0.00 0.00 92 1016.0
20260506095524 10 0 0.0 4.8 0.00 0.00 0.00 92 1016.1
20260506095024 10 302 0.0 6.4 0.00 0.00 0.00 92 1016.1
20260506094535 10 0 1.6 6.4 0.00 0.00 0.00 92 1016.1
20260506094023 10 274 1.6 8.0 0.00 0.00 0.00 92 1016.1
20260506093525 10 0 0.0 8.0 0.00 0.00 0.00 92 1016.1
20260506093040 10 238 1.6 8.0 0.00 0.00 0.00 92 1016.1
20260506092526 10 257 3.2 6.4 0.00 0.00 0.00 92 1016.0
20260506092023 10 260 3.2 6.4 0.00 0.00 0.00 92 1016.1
20260506091540 10 286 1.6 9.7 0.00 0.00 0.00 92 1016.1
20260506091024 10 301 3.2 12.9 0.00 0.00 0.00 92 1016.0
20260506090519 10 298 4.8 12.9 0.00 0.00 0.00 92 1015.9
20260506090039 11 290 4.8 12.9 0.00 0.00 0.00 92 1016.0
20260506085523 11 306 1.6 9.7 0.00 0.00 0.00 92 1016.0
20260506085024 11 298 1.6 9.7 0.00 0.00 0.00 92 1015.9
20260506084542 11 228 1.6 6.4 0.00 0.00 0.00 92 1015.8
20260506084024 11 228 1.6 6.4 0.00 0.00 0.00 92 1015.8
20260506083524 11 227 3.2 6.4 0.00 0.00 0.00 91 1015.9
20260506083043 11 0 0.0 6.4 0.00 0.00 0.00 92 1015.7
20260506082523 11 226 0.0 6.4 0.00 0.00 0.00 92 1015.8
20260506082023 11 217 0.0 6.4 0.00 0.00 0.00 91 1015.8
20260506081548 11 234 1.6 6.4 0.00 0.00 0.00 91 1015.8
20260506081023 11 220 3.2 6.4 0.00 0.00 0.00 91 1015.8
20260506080523 11 306 1.6 6.4 0.00 0.00 0.00 91 1015.7
20260506073524 11 0 1.6 6.4 0.00 0.00 0.00 91 1015.5
20260506073047 11 0 1.6 6.4 0.00 0.00 0.00 91 1015.5
20260506072525 11 257 3.2 6.4 0.00 0.00 0.00 91 1015.4
20260506072023 11 265 3.2 4.8 0.00 0.00 0.00 90 1015.4
20260506071536 11 302 0.0 6.4 0.00 0.00 0.00 90 1015.4
20260506071024 11 0 1.6 6.4 0.00 0.00 0.00 90 1015.3
20260506070523 11 317 3.2 6.4 0.00 0.00 0.00 90 1015.3
20260506062023 11 0 0.0 0.0 0.00 0.00 0.00 90 1015.2
20260506061539 11 0 0.0 0.0 0.00 0.00 0.00 90 1015.2
20260506061023 11 0 0.0 1.6 0.00 0.00 0.00 90 1015.2
20260506060523 11 0 0.0 3.2 0.00 0.00 0.00 90 1015.2
20260506051024 11 0 1.6 8.0 0.00 0.00 0.00 90 1015.2
20260506050523 11 0 0.0 8.0 0.00 0.00 0.00 90 1015.2
20260506045024 11 269 1.6 9.7 0.00 0.00 0.00 90 1015.2
20260506044544 11 0 3.2 9.7 0.00 0.00 0.00 90 1015.2
20260506044022 11 303 3.2 11.3 0.00 0.00 0.00 89 1015.1
20260506043523 11 303 4.8 11.3 0.00 0.00 0.00 89 1015.1
20260506043044 11 311 3.2 8.0 0.00 0.00 0.00 89 1015.0
20260506042528 11 0 0.0 4.8 0.00 0.00 0.00 90 1014.9
20260506042025 11 232 1.6 6.4 0.00 0.00 0.00 89 1014.7
20260506041542 11 242 3.2 6.4 0.00 0.00 0.00 89 1014.7
20260506041025 11 269 0.0 4.8 0.00 0.00 0.00 89 1014.7
20260506040525 11 269 0.0 6.4 0.00 0.00 0.00 89 1014.5
20260506040048 11 222 0.0 6.4 0.00 0.00 0.00 89 1014.4
20260506035528 11 229 1.6 6.4 0.00 0.00 0.00 89 1014.3
20260506035025 11 219 3.2 8.0 0.00 0.00 0.00 89 1014.2
20260506034540 11 210 3.2 8.0 0.00 0.00 0.00 89 1014.1
20260506034025 11 198 1.6 6.4 0.00 0.00 0.00 89 1014.0
20260506033525 11 211 1.6 4.8 0.00 0.00 0.00 89 1014.0
20260506033039 11 211 0.0 4.8 0.00 0.00 0.00 88 1014.0
20260506032525 11 0 0.0 8.0 0.00 0.00 0.00 89 1014.0
20260506032028 11 211 1.6 8.0 0.00 0.00 0.00 88 1013.9
20260506031538 11 218 1.6 4.8 0.00 0.00 0.00 89 1014.0
20260506031025 11 203 0.0 6.4 0.00 0.00 0.00 88 1013.9
20260506030527 11 211 0.0 6.4 0.00 0.00 0.00 88 1014.0
20260506030057 11 249 0.0 6.4 0.00 0.00 0.00 88 1014.0
20260506025524 11 249 1.6 6.4 0.00 0.00 0.00 88 1014.0
20260506025027 11 243 0.0 9.7 0.00 0.00 0.00 88 1013.9
20260506024555 11 227 1.6 9.7 0.00 0.00 0.00 88 1013.9
20260506024025 11 231 1.6 9.7 0.00 0.00 0.00 88 1014.0
20260506023525 11 205 0.0 9.7 0.00 0.00 0.00 88 1014.0
20260506023041 11 176 3.2 9.7 0.00 0.00 0.00 87 1013.9
20260506022524 12 0 0.0 3.2 0.00 0.00 0.00 87 1013.9
20260506022024 12 0 0.0 8.0 0.00 0.00 0.00 87 1013.9
20260506021539 12 202 1.6 8.0 0.00 0.00 0.00 87 1013.9
20260506021024 12 211 3.2 8.0 0.00 0.00 0.00 87 1014.0
20260506020529 12 257 0.0 4.8 0.00 0.00 0.00 87 1014.0
20260506020036 12 279 1.6 6.4 0.00 0.00 0.00 87 1014.0
20260506015524 12 233 1.6 6.4 0.00 0.00 0.00 87 1014.0
20260506015024 12 219 3.2 6.4 0.00 0.00 0.00 87 1014.0
20260506014555 12 0 0.0 6.4 0.00 0.00 0.00 87 1013.9
20260506014024 12 0 1.6 6.4 0.00 0.00 0.00 87 1013.9
20260506013523 12 221 1.6 6.4 0.00 0.00 0.00 87 1013.9
20260506013044 12 0 1.6 8.0 0.00 0.00 0.00 87 1013.9
20260506012523 12 250 3.2 8.0 0.00 0.00 0.00 86 1013.9
20260506012023 12 231 0.0 8.0 0.00 0.00 0.00 86 1013.9
20260506011542 12 0 0.0 8.0 0.00 0.00 0.00 86 1013.9
20260506011023 12 234 1.6 8.0 0.00 0.00 0.00 86 1014.0
20260506010523 12 0 1.6 6.4 0.00 0.00 0.00 86 1014.0
20260506010050 12 0 0.0 6.4 0.00 0.00 0.00 86 1014.0
20260506005525 12 240 0.0 11.3 0.00 0.00 0.00 86 1014.0
20260506005023 12 0 1.6 11.3 0.00 0.00 0.00 86 1014.0
20260506004548 13 221 1.6 6.4 0.00 0.00 0.00 86 1014.0
20260506004024 13 246 1.6 6.4 0.00 0.00 0.00 86 1014.0
20260506003523 13 0 1.6 3.2 0.00 0.00 0.00 85 1014.0
20260506003042 13 0 0.0 4.8 0.00 0.00 0.00 86 1014.0
20260506002522 13 292 0.0 4.8 0.00 0.00 0.00 86 1014.0
20260506002023 13 290 1.6 4.8 0.00 0.00 0.00 85 1014.1
20260506001536 13 298 1.6 4.8 0.00 0.00 0.00 85 1014.0
20260506001023 13 298 1.6 4.8 0.00 0.00 0.00 85 1014.1
20260506000524 13 0 1.6 4.8 0.00 0.00 0.00 85 1014.2
20260506000042 13 0 1.6 4.8 0.00 0.00 0.00 86 1014.2
20260505235522 13 310 0.0 4.8 0.00 0.00 0.00 85 1014.2
20260505235022 13 0 0.0 4.8 0.00 0.00 0.00 85 1014.1
20260505234542 13 290 1.6 4.8 0.00 0.00 0.00 86 1014.3
20260505234026 13 271 1.6 9.7 0.00 0.00 0.00 86 1014.3
20260505233524 13 243 0.0 9.7 0.00 0.00 0.00 86 1014.3
20260505233039 13 0 3.2 9.7 0.00 0.00 0.00 85 1014.3
20260505232523 13 250 1.6 8.0 0.00 0.00 0.00 84 1014.4
20260505232024 14 304 1.6 4.8 0.00 0.00 0.00 85 1014.3
20260505231541 13 267 1.6 4.8 0.00 0.00 0.00 86 1014.4
20260505231023 13 280 1.6 8.0 0.00 0.00 0.00 85 1014.4
20260505230522 13 268 1.6 8.0 0.00 0.00 0.00 85 1014.4
20260505230046 13 263 1.6 6.4 0.00 0.00 0.00 85 1014.4
20260505225523 14 0 1.6 6.4 0.00 0.00 0.00 85 1014.5
20260505225026 14 257 1.6 9.7 0.00 0.00 0.00 86 1014.5
20260505224537 14 277 3.2 9.7 0.00 0.00 0.00 85 1014.5
20260505224022 14 216 1.6 8.0 0.00 0.00 0.00 85 1014.4
20260505223522 14 273 1.6 8.0 0.00 0.00 0.00 85 1014.5
20260505223047 14 259 1.6 9.7 0.00 0.00 0.00 86 1014.5
20260505222522 14 0 0.0 9.7 0.00 0.00 0.00 86 1014.6
20260505222024 13 226 3.2 11.3 0.00 0.00 0.00 85 1014.6
20260505221542 14 265 1.6 11.3 0.00 0.00 0.00 86 1014.6
20260505221023 13 234 4.8 11.3 0.00 0.00 0.00 85 1014.7
20260505220523 13 278 3.2 11.3 0.00 0.00 0.00 86 1014.9
20260505220044 13 233 4.8 12.9 0.00 0.00 0.00 84 1014.7
20260505215525 14 244 6.4 12.9 0.00 0.00 0.00 83 1014.9
20260505215025 15 257 3.2 8.0 0.00 0.00 0.00 84 1014.8
20260505214539 15 275 1.6 4.8 0.00 0.00 0.00 85 1014.8
20260505214023 15 277 1.6 12.9 0.00 0.00 0.00 85 1014.8
20260505213527 14 269 3.2 12.9 0.00 0.00 0.00 85 1015.0
20260505213045 14 232 3.2 11.3 0.00 0.00 0.00 85 1015.0
20260505212522 14 239 3.2 9.7 0.00 0.00 0.00 85 1014.9
20260505212023 14 235 3.2 9.7 0.00 0.00 0.00 85 1014.9
20260505211546 14 216 4.8 11.3 0.00 0.00 0.00 84 1014.8
20260505211023 14 252 3.2 11.3 0.00 0.00 0.00 86 1014.9
20260505210522 14 278 3.2 8.0 0.00 0.00 0.00 86 1014.8
20260505210036 14 238 1.6 8.0 0.00 0.00 0.00 86 1014.8
20260505205527 14 209 3.2 8.0 0.00 0.00 0.00 86 1014.9
20260505205023 14 232 1.6 8.0 0.00 0.00 0.00 85 1014.8
20260505204542 14 279 3.2 8.0 0.00 0.00 0.00 87 1014.9
20260505204027 14 276 3.2 8.0 0.00 0.00 0.00 86 1014.9
20260505203523 14 274 1.6 8.0 0.00 0.00 0.00 86 1015.0
20260505203047 14 231 3.2 8.0 0.00 0.00 0.00 85 1015.0
20260505202523 14 217 1.6 8.0 0.00 0.00 0.00 86 1015.0
20260505202023 14 273 1.6 8.0 0.00 0.00 0.00 87 1015.0
20260505201536 13 250 3.2 8.0 0.00 0.00 0.00 87 1014.9
20260505201023 13 239 4.8 9.7 0.00 0.00 0.00 86 1015.0
20260505200523 14 231 1.6 9.7 0.00 0.00 0.00 87 1015.0
20260505200037 13 250 4.8 9.7 0.00 0.00 0.00 86 1015.0
20260505195526 13 213 4.8 9.7 0.00 0.00 0.00 87 1014.8
20260505195022 13 236 3.2 11.3 0.00 0.00 0.00 87 1014.9
20260505194535 13 229 6.4 11.3 0.00 0.00 0.00 86 1014.9
20260505194022 13 254 6.4 11.3 0.00 0.00 0.00 86 1014.9
20260505193525 13 237 3.2 9.7 0.00 0.00 0.00 87 1014.8
20260505193101 13 239 4.8 12.9 0.00 0.00 0.00 88 1014.8
20260505192524 13 274 4.8 12.9 0.00 0.00 0.00 88 1014.9
20260505192023 13 207 6.4 9.7 0.00 0.00 0.00 87 1014.7
20260505191541 13 223 4.8 9.7 0.00 0.00 0.00 88 1014.6
20260505191023 12 225 3.2 8.0 0.00 0.00 0.00 88 1014.6
20260505190522 12 213 4.8 9.7 0.00 0.00 0.00 88 1014.6
20260505190041 13 229 3.2 9.7 0.00 0.00 0.00 89 1014.6
20260505185523 12 216 3.2 11.3 0.00 0.00 0.00 88 1014.7
20260505185025 13 202 4.8 11.3 0.00 0.00 0.00 88 1014.7
20260505184552 13 233 4.8 9.7 0.00 0.00 0.00 89 1014.6
20260505184024 12 232 4.8 9.7 0.00 0.00 0.00 89 1014.6
20260505183524 12 194 4.8 9.7 0.00 0.00 0.00 89 1014.6
20260505183033 12 215 3.2 8.0 0.00 0.00 0.00 89 1014.5
20260505182523 12 225 3.2 8.0 0.00 0.00 0.00 89 1014.5
20260505182023 12 206 3.2 8.0 0.00 0.00 0.00 89 1014.5
20260505181541 12 221 3.2 8.0 0.00 0.00 0.00 89 1014.5
20260505181026 12 200 4.8 8.0 0.00 0.00 0.00 88 1014.5
20260505180524 12 0 3.2 8.0 0.00 0.00 0.00 89 1014.5